Powrót do katalogu

KINEIS-4D

AktywnyŁącznośćSSO
NORAD 63302·PAYLOAD·🇫🇷 France

Wystrzelony Mar 18, 2025 z Rocket Lab Launch Complex 1

Loading…

Następne Przeloty (najbliższe 24 godziny)

TLE

ŚwieżeSource: Space-Track

Epoka: Sep 14, 2026, 13:37 UTC

1 63302U 25056C   26257.56744409  .00001163  00000-0  19142-3 0  9994
2 63302  97.9112  19.2328 0003566  67.6566 292.5020 14.72352232 80285

Śledź KINEIS-4D w czasie rzeczywistym z AllMySat

Download on the App Store